Location: Lone Pine Community Mobile Home Park
(42.7367°N, 73.8567°W)
Time: 07:47:42
(UTC+00:00)

USA 306 - Pass Details

Date: 29 October 2020
Orbit: 569 x 576 km, 54.0° (Epoch: 30 November)

Event Time Altitude Azimuth Distance (km) Brightness Sun altitude
Rises 22:42:53 0° 310° (NW) 2,792 7.1 -10.0°
Reaches altitude 10° 22:45:17 10° 319° (NW) 1,890 6.0 -10.5°
Maximum altitude 22:49:18 37° 27° (NNE) 904 3.6 -11.2°
Enters shadow 22:52:08 17° 88° (E) 1,478 4.3 -11.7°
